STARLINK-35249, 65901

Orbit data source: Space-Track

STARLINK-35249, 65901 is a payload satellite owned by SpaceX/Seattle (US) in LEO that was launched on Tue, 07 Oct 2025 UTC via an FALCON 9 launch vehicle from the Air Force Eastern Test Range (AFETR). Payload-class satellites include a variety of spacecraft equipped with specific instruments for various scientific and technological missions. These include communications satellites like Starlink; space stations such as the ISS; scientific satellites like the Hubble; Earth observation satellites from companies like Planet Labs, Umbra, and HawkEye 360; GPS; miniature CubeSats for education and research; and military/defense satellites.

Loading next visibility...
Identifier
65901, 2025-224V
Orbit
LEO
Country
Flag of USUS
Related business
Manufacturer
SpaceX/Seattle
Mission
Operational Commercial Communications
Bus & Motor
STARLINK V2MO, Unknown motor
Mass
575 kg wet, ~530 kg dry
Launch date (UTC)
2025-10-07 (5 months ago)
Launch vehicle
FALCON 9
Launch site
Air Force Eastern Test Range (AFETR)
Object type
Payload
Rocket body
Debris
Shape & HBR
Box + 2 Pan, 17.7 m
Radar Cross Section
36.964 m²

Expand to show TLE details & history
Last TLE update: 6 hours ago

TLE from 6 hours ago
0 STARLINK-35249
1 65901U 25224V   26062.42823044  .00023837  00000-0  81405-3 0  9993
2 65901  53.1581  40.5658 0001318  93.5369 266.5783 15.30212422 23893
Epoch: 2026-03-03T10:16Z
TLE epoch observation values (Epoch: 2026-03-03T10:16:39.110Z)
Latitude
-0.00001°
Longitude
85.19541°
Altitude
476.132 km
Speed
7.629 km/s
True Right ascension
02h 42m 15s
True Declination
0° 00' 00"
Sunlit
Object was in daylight at epoch
Visualization orbit readout
Latitude
Unknown
Longitude
Unknown
Altitude
Unknown
Speed
Unknown
Apparent Right ascension
Unknown
Apparent Declination
Unknown
Sunlit
N/A
Visualization observer readout
Local Sidereal Time
19:33:19
Azimuth
Unknown
Elevation
Unknown
Doppler factor
Unknown
Orbital elements
Apogee altitude
476.338 km
Perigee altitude
474.531 km
Semi-major axis
6,853.572 km
Eccentricity
0.00013
Inclination
53.1581°
RAAN
40.5658°
Arg. of periapsis
93.5369°
True anomaly
266.56322°
Mean anomaly
266.5783°
Eccentric anomaly
266.57076°
Mean motion
3.82532 °/min
Orbital period
94.11 mins
BSTAR
0.00081405
Loading maneuver chart data...
Computing Atmospheric mass density...
Loading historical data...
Loading historical data...
Loading historical data...
Loading historical data...
Loading historical data...
Loading historical data...
Loading historical data...

Documentation

Showing up to 5 results
|